AFR78WP LFPO-LFBZ

Flight info

Callsign AFR78WP
Flight time 1h 10m
Altitude 35000
Route AGOPA DCT ARKIP DCT ARMAL DCT ARTAX DCT BEBIX DCT LMG DCT UVELI DCT OSMOB DCT VAVIX DCT MAGEC
Aircraft A321/M-SDE2FGHIRWXY/LB1

Departure

Time 2026-05-07 17:22
Airport Paris-Orly Airport (LFPO)

Arrival

Time 2026-05-07 18:32
Airport Biarritz Pays Basque airport (LFBZ)
Time Latitude Longitude Altitude Speed Heading
2026-05-07 16:55 48.72753 2.35787 285 ft 0 kts 172°
2026-05-07 17:12 48.72761 2.35785 286 ft 2 kts 172°
2026-05-07 17:13 48.72781 2.35776 288 ft 4 kts 123°
2026-05-07 17:13 48.72787 2.35741 291 ft 4 kts 84°
2026-05-07 17:13 48.72782 2.35701 291 ft 4 kts 75°
2026-05-07 17:13 48.72777 2.35671 290 ft 4 kts 83°
2026-05-07 17:14 48.72778 2.35631 290 ft 4 kts 109°
2026-05-07 17:14 48.72790 2.35597 289 ft 4 kts 137°
2026-05-07 17:14 48.72811 2.35577 290 ft 3 kts 164°
2026-05-07 17:14 48.72831 2.35569 288 ft 0 kts 164°
2026-05-07 17:17 48.72807 2.35579 290 ft 9 kts 165°
2026-05-07 17:17 48.72749 2.35557 289 ft 8 kts 229°
2026-05-07 17:17 48.72716 2.35499 289 ft 7 kts 205°
2026-05-07 17:17 48.72628 2.35528 290 ft 18 kts 164°
2026-05-07 17:18 48.72512 2.35576 288 ft 17 kts 165°
2026-05-07 17:18 48.72403 2.35622 291 ft 16 kts 165°
2026-05-07 17:18 48.72298 2.35625 288 ft 14 kts 194°
2026-05-07 17:18 48.72211 2.35602 287 ft 12 kts 175°
2026-05-07 17:19 48.72136 2.35632 289 ft 11 kts 162°
2026-05-07 17:19 48.72088 2.35665 289 ft 7 kts 150°
2026-05-07 17:19 48.72052 2.35707 291 ft 6 kts 132°
2026-05-07 17:19 48.72029 2.35752 290 ft 4 kts 124°
2026-05-07 17:20 48.72026 2.35758 291 ft 0 kts 123°
2026-05-07 17:20 48.72025 2.35761 289 ft 3 kts 123°
2026-05-07 17:20 48.71985 2.35864 292 ft 19 kts 117°
2026-05-07 17:20 48.71981 2.36066 290 ft 24 kts 73°
2026-05-07 17:21 48.72071 2.36556 290 ft 72 kts 75°
2026-05-07 17:21 48.72243 2.37500 288 ft 113 kts 74°
2026-05-07 17:21 48.72489 2.38823 291 ft 147 kts 74°
2026-05-07 17:21 48.72690 2.39906 323 ft 168 kts 74°
2026-05-07 17:22 48.73003 2.41583 983 ft 164 kts 71°
2026-05-07 17:22 48.73310 2.43269 1666 ft 168 kts 71°
2026-05-07 17:22 48.73610 2.44988 2302 ft 170 kts 73°
2026-05-07 17:22 48.73885 2.46728 2894 ft 170 kts 73°
2026-05-07 17:23 48.73989 2.48522 3434 ft 174 kts 87°
2026-05-07 17:23 48.73986 2.50418 3757 ft 188 kts 87°
2026-05-07 17:23 48.74009 2.52503 3929 ft 208 kts 85°
2026-05-07 17:23 48.74090 2.54804 4076 ft 231 kts 84°
2026-05-07 17:24 48.73893 2.57324 4343 ft 255 kts 114°
2026-05-07 17:24 48.72674 2.59359 4765 ft 273 kts 151°
2026-05-07 17:24 48.70898 2.60428 5443 ft 279 kts 164°
2026-05-07 17:24 48.69017 2.61137 6250 ft 279 kts 168°
2026-05-07 17:25 48.67111 2.61677 6967 ft 281 kts 178°
2026-05-07 17:25 48.65141 2.61362 7646 ft 282 kts 197°
2026-05-07 17:25 48.63329 2.60266 8352 ft 282 kts 212°
2026-05-07 17:25 48.61800 2.58477 9036 ft 282 kts 229°
2026-05-07 17:26 48.60505 2.56193 9730 ft 284 kts 232°
2026-05-07 17:26 48.59225 2.53884 10290 ft 291 kts 232°
2026-05-07 17:26 48.57886 2.51444 10420 ft 312 kts 232°
2026-05-07 17:26 48.56457 2.48840 10551 ft 331 kts 232°
2026-05-07 17:27 48.54965 2.46129 10945 ft 339 kts 231°
2026-05-07 17:27 48.53446 2.43382 11535 ft 343 kts 231°
2026-05-07 17:27 48.51911 2.40607 12154 ft 345 kts 231°
2026-05-07 17:27 48.50371 2.37824 12762 ft 348 kts 231°
2026-05-07 17:28 48.48811 2.35008 13365 ft 350 kts 231°
2026-05-07 17:28 48.47246 2.32181 13940 ft 353 kts 231°
2026-05-07 17:28 48.45667 2.29331 14460 ft 356 kts 231°
2026-05-07 17:28 48.44077 2.26469 15179 ft 349 kts 231°
2026-05-07 17:29 48.42567 2.23759 16429 ft 328 kts 231°
2026-05-07 17:29 48.41144 2.21203 17627 ft 311 kts 231°
2026-05-07 17:29 48.39768 2.18733 18188 ft 306 kts 231°
2026-05-07 17:29 48.38403 2.16280 18392 ft 307 kts 231°
2026-05-07 17:30 48.37026 2.13813 18554 ft 307 kts 231°
2026-05-07 17:30 48.35649 2.11351 18704 ft 308 kts 231°
2026-05-07 17:30 48.34269 2.08887 18866 ft 309 kts 231°
2026-05-07 17:30 48.32895 2.06465 19012 ft 313 kts 227°
2026-05-07 17:31 48.31266 2.04250 19131 ft 328 kts 217°
2026-05-07 17:31 48.29285 2.02423 19260 ft 342 kts 207°
2026-05-07 17:31 48.27010 2.01142 19383 ft 357 kts 195°
2026-05-07 17:31 48.24515 2.00541 19508 ft 370 kts 184°
2026-05-07 17:32 48.21901 2.00568 19629 ft 382 kts 180°
2026-05-07 17:32 48.19212 2.00657 19863 ft 388 kts 180°
2026-05-07 17:32 48.16500 2.00740 20195 ft 391 kts 180°
2026-05-07 17:32 48.13769 2.00816 20557 ft 393 kts 180°
2026-05-07 17:33 48.11029 2.00893 20930 ft 395 kts 180°
2026-05-07 17:33 48.08237 2.00974 21303 ft 397 kts 180°
2026-05-07 17:33 48.05470 2.01085 21673 ft 399 kts 179°
2026-05-07 17:33 48.02682 2.01242 22070 ft 401 kts 179°
2026-05-07 17:34 47.99888 2.01424 22431 ft 403 kts 179°
2026-05-07 17:34 47.97078 2.01620 22807 ft 405 kts 179°
2026-05-07 17:34 47.94258 2.01809 23186 ft 407 kts 179°
2026-05-07 17:34 47.91423 2.01987 23557 ft 409 kts 179°
2026-05-07 17:35 47.88573 2.02159 23879 ft 411 kts 179°
2026-05-07 17:35 47.85710 2.02327 24193 ft 413 kts 179°
2026-05-07 17:35 47.82831 2.02491 24507 ft 415 kts 179°
2026-05-07 17:35 47.79941 2.02656 24820 ft 417 kts 179°
2026-05-07 17:36 47.77037 2.02826 25123 ft 418 kts 179°
2026-05-07 17:36 47.74124 2.02999 25428 ft 420 kts 179°
2026-05-07 17:36 47.71199 2.03173 25727 ft 422 kts 179°
2026-05-07 17:36 47.68258 2.03348 26022 ft 424 kts 179°
2026-05-07 17:37 47.65305 2.03521 26328 ft 425 kts 179°
2026-05-07 17:37 47.62343 2.03692 26615 ft 427 kts 179°
2026-05-07 17:37 47.59369 2.03859 26907 ft 429 kts 179°
2026-05-07 17:37 47.56380 2.04028 27183 ft 431 kts 179°
2026-05-07 17:38 47.53380 2.04199 27475 ft 432 kts 179°
2026-05-07 17:38 47.50371 2.04369 27762 ft 434 kts 179°
2026-05-07 17:38 47.47343 2.04542 28039 ft 436 kts 179°
2026-05-07 17:38 47.44311 2.04717 28322 ft 437 kts 179°
2026-05-07 17:39 47.41260 2.04892 28600 ft 439 kts 179°
2026-05-07 17:39 47.38209 2.05063 28874 ft 440 kts 179°
2026-05-07 17:39 47.35138 2.05193 29124 ft 441 kts 182°
2026-05-07 17:39 47.32083 2.04798 29360 ft 441 kts 191°
2026-05-07 17:40 47.29057 2.04028 29589 ft 442 kts 191°
2026-05-07 17:40 47.26019 2.03253 29810 ft 444 kts 191°
2026-05-07 17:40 47.22972 2.02479 30015 ft 445 kts 191°
2026-05-07 17:40 47.19915 2.01704 30193 ft 446 kts 191°
2026-05-07 17:41 47.16817 2.00922 30442 ft 445 kts 191°
2026-05-07 17:41 47.13772 2.00158 30699 ft 444 kts 191°
2026-05-07 17:41 47.10768 1.99412 30949 ft 443 kts 191°
2026-05-07 17:41 47.07694 1.98645 31202 ft 442 kts 191°
2026-05-07 17:42 47.04660 1.97879 31453 ft 441 kts 191°
2026-05-07 17:42 47.01639 1.97112 31706 ft 441 kts 191°
2026-05-07 17:42 46.98619 1.96350 31951 ft 440 kts 191°
2026-05-07 17:42 46.95605 1.95594 32195 ft 439 kts 192°
2026-05-07 17:43 46.92594 1.94844 32441 ft 439 kts 192°
2026-05-07 17:43 46.89587 1.94095 32690 ft 438 kts 192°
2026-05-07 17:43 46.86590 1.93346 32938 ft 437 kts 192°
2026-05-07 17:43 46.83594 1.92596 33172 ft 436 kts 192°
2026-05-07 17:44 46.80601 1.91846 33413 ft 435 kts 192°
2026-05-07 17:44 46.77618 1.91103 33652 ft 435 kts 192°
2026-05-07 17:44 46.74644 1.90369 33884 ft 434 kts 192°
2026-05-07 17:44 46.71665 1.89636 34087 ft 434 kts 192°
2026-05-07 17:45 46.68694 1.88902 34267 ft 433 kts 192°
2026-05-07 17:45 46.65724 1.88160 34442 ft 433 kts 192°
2026-05-07 17:45 46.62760 1.87420 34599 ft 433 kts 192°
2026-05-07 17:45 46.59786 1.86683 34766 ft 432 kts 192°
2026-05-07 17:46 46.56825 1.85952 34922 ft 432 kts 192°
2026-05-07 17:46 46.53866 1.85223 34981 ft 430 kts 192°
2026-05-07 17:46 46.47984 1.83780 34987 ft 428 kts 192°
2026-05-07 17:47 46.42126 1.82341 34985 ft 427 kts 192°
2026-05-07 17:47 46.36233 1.80895 34981 ft 426 kts 192°
2026-05-07 17:48 46.30388 1.79456 34984 ft 425 kts 193°
2026-05-07 17:48 46.24888 1.76612 34975 ft 419 kts 212°
2026-05-07 17:49 46.20299 1.71514 34975 ft 416 kts 222°
2026-05-07 17:49 46.15922 1.66031 34969 ft 417 kts 222°
2026-05-07 17:50 46.11538 1.60571 34970 ft 417 kts 222°
2026-05-07 17:50 46.07144 1.55118 34970 ft 417 kts 221°
2026-05-07 17:51 46.02748 1.49674 34974 ft 417 kts 221°
2026-05-07 17:51 45.98353 1.44247 34975 ft 416 kts 221°
2026-05-07 17:52 45.94414 1.38218 34976 ft 415 kts 237°
2026-05-07 17:52 45.91703 1.30914 34983 ft 415 kts 243°
2026-05-07 17:53 45.89094 1.23530 34986 ft 415 kts 242°
2026-05-07 17:53 45.86466 1.16163 34975 ft 415 kts 242°
2026-05-07 17:54 45.83829 1.08807 34980 ft 414 kts 242°
2026-05-07 17:54 45.81336 1.02900 34976 ft 413 kts 231°
2026-05-07 17:55 45.77167 0.97251 34979 ft 414 kts 220°
2026-05-07 17:55 45.72753 0.91969 34966 ft 414 kts 220°
2026-05-07 17:56 45.68334 0.86683 34965 ft 414 kts 220°
2026-05-07 17:56 45.63916 0.81408 34967 ft 414 kts 220°
2026-05-07 17:57 45.59493 0.76141 34964 ft 414 kts 220°
2026-05-07 17:57 45.55075 0.70891 34957 ft 414 kts 220°
2026-05-07 17:58 45.50643 0.65647 34955 ft 414 kts 220°
2026-05-07 17:58 45.46219 0.60417 34950 ft 414 kts 220°
2026-05-07 17:59 45.41787 0.55191 34950 ft 413 kts 220°
2026-05-07 17:59 45.37363 0.49974 34951 ft 413 kts 220°
2026-05-07 18:00 45.32927 0.44769 34946 ft 413 kts 220°
2026-05-07 18:00 45.28495 0.39579 34953 ft 413 kts 220°
2026-05-07 18:01 45.24038 0.34361 34946 ft 413 kts 220°
2026-05-07 18:01 45.19610 0.29183 34948 ft 412 kts 220°
2026-05-07 18:02 45.12964 0.21438 34946 ft 412 kts 220°
2026-05-07 18:03 45.08532 0.16293 34945 ft 412 kts 219°
2026-05-07 18:03 45.04101 0.11154 34951 ft 412 kts 220°
2026-05-07 18:04 44.99668 0.06019 34944 ft 412 kts 219°
2026-05-07 18:04 44.95239 0.00891 34286 ft 415 kts 219°
2026-05-07 18:04 44.92982 -0.01711 33322 ft 420 kts 219°
2026-05-07 18:05 44.90730 -0.04295 32830 ft 413 kts 219°
2026-05-07 18:05 44.88517 -0.06829 32328 ft 408 kts 219°
2026-05-07 18:05 44.86324 -0.09340 31829 ft 403 kts 219°
2026-05-07 18:05 44.84164 -0.11816 31337 ft 399 kts 219°
2026-05-07 18:06 44.82043 -0.14247 30857 ft 394 kts 219°
2026-05-07 18:06 44.79930 -0.16671 30371 ft 390 kts 219°
2026-05-07 18:06 44.77841 -0.19070 29878 ft 386 kts 219°
2026-05-07 18:06 44.75772 -0.21444 29384 ft 380 kts 219°
2026-05-07 18:07 44.73707 -0.23805 28927 ft 374 kts 219°
2026-05-07 18:07 44.71731 -0.26061 28481 ft 368 kts 219°
2026-05-07 18:07 44.69760 -0.28305 28039 ft 361 kts 219°
2026-05-07 18:07 44.67800 -0.30531 27610 ft 355 kts 219°
2026-05-07 18:08 44.65894 -0.32692 27202 ft 350 kts 219°
2026-05-07 18:08 44.63986 -0.34798 26749 ft 348 kts 217°
2026-05-07 18:08 44.62028 -0.36776 26314 ft 346 kts 215°
2026-05-07 18:08 44.60045 -0.38675 25900 ft 344 kts 214°
2026-05-07 18:09 44.58064 -0.40532 25498 ft 342 kts 214°
2026-05-07 18:09 44.56088 -0.42382 25091 ft 340 kts 214°
2026-05-07 18:09 44.54133 -0.44223 24692 ft 338 kts 214°
2026-05-07 18:09 44.52192 -0.46068 24297 ft 336 kts 215°
2026-05-07 18:10 44.50266 -0.47912 23892 ft 335 kts 215°
2026-05-07 18:10 44.48351 -0.49754 23494 ft 333 kts 215°
2026-05-07 18:10 44.46446 -0.51585 23049 ft 331 kts 215°
2026-05-07 18:10 44.44550 -0.53406 22641 ft 329 kts 215°
2026-05-07 18:11 44.42664 -0.55212 22253 ft 328 kts 215°
2026-05-07 18:11 44.41425 -0.56397 21975 ft 327 kts 215°
2026-05-07 18:11 44.38921 -0.58788 21443 ft 324 kts 215°
2026-05-07 18:11 44.37063 -0.60566 21036 ft 323 kts 216°
2026-05-07 18:12 44.35219 -0.62329 20632 ft 321 kts 215°
2026-05-07 18:12 44.33379 -0.64083 20227 ft 319 kts 215°
2026-05-07 18:12 44.31552 -0.65821 19824 ft 318 kts 215°
2026-05-07 18:12 44.29723 -0.67558 19432 ft 317 kts 215°
2026-05-07 18:13 44.27903 -0.69283 19038 ft 315 kts 215°
2026-05-07 18:13 44.26094 -0.71002 18634 ft 314 kts 216°
2026-05-07 18:13 44.24296 -0.72719 18220 ft 313 kts 216°
2026-05-07 18:13 44.22504 -0.74432 17807 ft 312 kts 216°
2026-05-07 18:14 44.20718 -0.76143 17413 ft 311 kts 216°
2026-05-07 18:14 44.18941 -0.77842 17033 ft 309 kts 216°
2026-05-07 18:14 44.17150 -0.79555 16650 ft 307 kts 216°
2026-05-07 18:14 44.15412 -0.81216 16275 ft 306 kts 216°
2026-05-07 18:15 44.13639 -0.82908 15898 ft 304 kts 216°
2026-05-07 18:15 44.11900 -0.84564 15538 ft 302 kts 216°
2026-05-07 18:15 44.10165 -0.86213 15168 ft 301 kts 216°
2026-05-07 18:15 44.08442 -0.87850 14801 ft 299 kts 216°
2026-05-07 18:16 44.06727 -0.89480 14435 ft 298 kts 216°
2026-05-07 18:16 44.05023 -0.91099 14073 ft 296 kts 216°
2026-05-07 18:16 44.03322 -0.92714 13701 ft 295 kts 216°
2026-05-07 18:16 44.01633 -0.94319 13311 ft 293 kts 216°
2026-05-07 18:17 43.99954 -0.95912 12941 ft 292 kts 215°
2026-05-07 18:17 43.98278 -0.97500 12574 ft 291 kts 215°
2026-05-07 18:17 43.96609 -0.99079 12209 ft 290 kts 215°
2026-05-07 18:17 43.94949 -1.00649 11849 ft 288 kts 215°
2026-05-07 18:18 43.93298 -1.02209 11484 ft 287 kts 215°
2026-05-07 18:18 43.91656 -1.03759 11126 ft 285 kts 215°
2026-05-07 18:18 43.90021 -1.05303 10752 ft 283 kts 214°
2026-05-07 18:18 43.88396 -1.06834 10388 ft 282 kts 214°
2026-05-07 18:19 43.86777 -1.08357 10154 ft 279 kts 214°
2026-05-07 18:19 43.85169 -1.09870 10054 ft 281 kts 214°
2026-05-07 18:19 43.83552 -1.11391 9938 ft 280 kts 214°
2026-05-07 18:19 43.81936 -1.12912 9593 ft 282 kts 214°
2026-05-07 18:20 43.80318 -1.14431 9192 ft 279 kts 214°
2026-05-07 18:20 43.78716 -1.15932 8814 ft 277 kts 214°
2026-05-07 18:20 43.77129 -1.17419 8451 ft 275 kts 214°
2026-05-07 18:20 43.75550 -1.18901 8072 ft 273 kts 213°
2026-05-07 18:21 43.74007 -1.20414 7770 ft 271 kts 216°
2026-05-07 18:21 43.72523 -1.22026 7578 ft 272 kts 218°
2026-05-07 18:21 43.71061 -1.23684 7366 ft 271 kts 219°
2026-05-07 18:21 43.69615 -1.25345 7148 ft 270 kts 218°
2026-05-07 18:22 43.68170 -1.26998 6940 ft 269 kts 218°
2026-05-07 18:22 43.67193 -1.28111 6788 ft 269 kts 218°
2026-05-07 18:22 43.65261 -1.30293 6499 ft 268 kts 218°
2026-05-07 18:22 43.63815 -1.31914 6290 ft 268 kts 218°
2026-05-07 18:23 43.62369 -1.33530 6068 ft 267 kts 218°
2026-05-07 18:23 43.61028 -1.35297 5812 ft 268 kts 236°
2026-05-07 18:23 43.60505 -1.37740 5574 ft 272 kts 271°
2026-05-07 18:23 43.61030 -1.40243 5376 ft 277 kts 295°
2026-05-07 18:24 43.61915 -1.42597 5209 ft 278 kts 295°
2026-05-07 18:24 43.62692 -1.45049 4998 ft 277 kts 288°
2026-05-07 18:24 43.63180 -1.47620 4772 ft 276 kts 277°
2026-05-07 18:24 43.63368 -1.50246 4538 ft 274 kts 269°
2026-05-07 18:25 43.63304 -1.52869 4312 ft 273 kts 262°
2026-05-07 18:25 43.63031 -1.55450 4092 ft 272 kts 256°
2026-05-07 18:25 43.62559 -1.57971 3861 ft 270 kts 250°
2026-05-07 18:25 43.61885 -1.60376 3638 ft 268 kts 242°
2026-05-07 18:26 43.61012 -1.62644 3432 ft 267 kts 236°
2026-05-07 18:26 43.59975 -1.64757 3216 ft 265 kts 230°
2026-05-07 18:26 43.58791 -1.66685 3006 ft 263 kts 223°
2026-05-07 18:26 43.57468 -1.68419 2794 ft 262 kts 217°
2026-05-07 18:27 43.56028 -1.69936 2588 ft 260 kts 211°
2026-05-07 18:27 43.54487 -1.71231 2381 ft 258 kts 205°
2026-05-07 18:27 43.53424 -1.71955 2250 ft 254 kts 201°
2026-05-07 18:27 43.51819 -1.72811 2160 ft 240 kts 195°
2026-05-07 18:28 43.50234 -1.73404 2060 ft 228 kts 187°
2026-05-07 18:28 43.48703 -1.73275 1956 ft 221 kts 155°
2026-05-07 18:28 43.47541 -1.71961 1874 ft 219 kts 121°
2026-05-07 18:28 43.47139 -1.69963 1810 ft 220 kts 92°
2026-05-07 18:29 43.47098 -1.67862 1732 ft 221 kts 93°
2026-05-07 18:29 43.47046 -1.65749 1653 ft 217 kts 93°
2026-05-07 18:29 43.46996 -1.63769 1565 ft 196 kts 93°
2026-05-07 18:29 43.46950 -1.62015 1493 ft 173 kts 93°
2026-05-07 18:30 43.46919 -1.60413 1283 ft 162 kts 92°
2026-05-07 18:30 43.46898 -1.58900 1049 ft 153 kts 93°
2026-05-07 18:30 43.46881 -1.57485 842 ft 145 kts 91°
2026-05-07 18:30 43.46866 -1.56119 669 ft 141 kts 93°
2026-05-07 18:31 43.46829 -1.54765 484 ft 141 kts 92°
2026-05-07 18:31 43.46831 -1.53415 274 ft 141 kts 90°
2026-05-07 18:31 43.46841 -1.52194 249 ft 102 kts 89°
2026-05-07 18:31 43.46842 -1.51459 249 ft 52 kts 87°
2026-05-07 18:32 43.46850 -1.51186 248 ft 14 kts 87°
2026-05-07 18:32 43.46862 -1.51058 249 ft 12 kts 71°
2026-05-07 18:32 43.46883 -1.50972 250 ft 7 kts 111°
2026-05-07 18:32 43.46862 -1.50981 249 ft 6 kts 225°
2026-05-07 18:33 43.46853 -1.51097 249 ft 15 kts 270°
2026-05-07 18:33 43.46851 -1.51238 248 ft 15 kts 268°
2026-05-07 18:33 43.46849 -1.51413 249 ft 21 kts 270°
2026-05-07 18:33 43.46847 -1.51609 249 ft 21 kts 268°
2026-05-07 18:34 43.46844 -1.51860 249 ft 28 kts 269°
2026-05-07 18:34 43.46846 -1.52105 249 ft 16 kts 276°
2026-05-07 18:34 43.46928 -1.52178 247 ft 14 kts 357°
2026-05-07 18:34 43.46991 -1.52219 247 ft 9 kts 301°
2026-05-07 18:35 43.46999 -1.52310 247 ft 13 kts 268°
2026-05-07 18:35 43.46997 -1.52469 247 ft 17 kts 269°
2026-05-07 18:35 43.46995 -1.52625 247 ft 16 kts 269°
2026-05-07 18:35 43.46993 -1.52773 247 ft 15 kts 269°
2026-05-07 18:36 43.46992 -1.52911 247 ft 14 kts 269°
2026-05-07 18:36 43.46990 -1.53039 247 ft 13 kts 268°
2026-05-07 18:36 43.46988 -1.53158 247 ft 12 kts 269°
2026-05-07 18:36 43.47018 -1.53238 247 ft 9 kts 349°
2026-05-07 18:37 43.47061 -1.53236 247 ft 2 kts 359°
2026-05-07 18:37 43.47068 -1.53236 247 ft 0 kts 359°